| time (UTC) | temp F | wind direction | speed MPH | gust MPH | rain 1hr in | rain 24hr in | rain mn in | humidity % | barometer mb |
| 20260906010123 | 73 | 340 | 4.0 | 21.0 | 0.00 | 0.00 | 0.00 | 83 | 1015.6 |
| 20260906000123 | 76 | 360 | 14.0 | 18.0 | 0.00 | 0.00 | 0.00 | 81 | 1015.1 |
| 20260905223123 | 79 | 11 | 13.0 | 17.0 | 0.00 | 0.00 | 0.00 | 78 | 1014.4 |
| 20260905220122 | 81 | 27 | 10.0 | 21.0 | 0.00 | 0.00 | 0.00 | 75 | 1014.4 |
| 20260905210122 | 83 | 344 | 7.0 | 21.0 | 0.00 | 0.00 | 0.00 | 74 | 1014.1 |
| 20260905203122 | 84 | 44 | 20.0 | 22.0 | 0.00 | 0.00 | 0.00 | 70 | 1014.3 |
| 20260905200122 | 84 | 49 | 7.0 | 20.0 | 0.00 | 0.00 | 0.00 | 71 | 1014.1 |
| 20260905193122 | 85 | 34 | 8.0 | 23.0 | 0.00 | 0.00 | 0.00 | 70 | 1014.4 |
| 20260905190125 | 85 | 344 | 7.0 | 17.0 | 0.00 | 0.00 | 0.00 | 71 | 1014.4 |
| 20260905180122 | 85 | 51 | 11.0 | 14.0 | 0.00 | 0.00 | 0.00 | 74 | 1014.5 |
| 20260905173122 | 85 | 34 | 8.0 | 17.0 | 0.00 | 0.00 | 0.00 | 72 | 1014.5 |
| 20260905170122 | 85 | 350 | 5.0 | 17.0 | 0.00 | 0.00 | 0.00 | 76 | 1014.7 |
| 20260905163122 | 84 | 346 | 2.0 | 13.0 | 0.00 | 0.00 | 0.00 | 77 | 1014.8 |
| 20260905160122 | 83 | 22 | 4.0 | 14.0 | 0.00 | 0.00 | 0.00 | 79 | 1014.7 |
| 20260905153122 | 83 | 21 | 5.0 | 16.0 | 0.00 | 0.00 | 0.00 | 81 | 1014.4 |
| 20260905150121 | 83 | 332 | 2.0 | 13.0 | 0.00 | 0.00 | 0.00 | 81 | 1014.2 |
| 20260905143122 | 81 | 36 | 5.0 | 10.0 | 0.00 | 0.00 | 0.00 | 85 | 1014.0 |
| 20260905140122 | 79 | 360 | 4.0 | 9.0 | 0.00 | 0.00 | 0.00 | 92 | 1013.9 |
| 20260905130122 | 77 | 325 | 2.0 | 5.0 | 0.00 | 0.00 | 0.00 | 93 | 1013.7 |
| 20260905123121 | 76 | 306 | 0.0 | 13.0 | 0.00 | 0.00 | 0.00 | 93 | 1013.5 |
| 20260905120122 | 76 | 232 | 2.0 | 7.0 | 0.00 | 0.00 | 0.00 | 93 | 1013.2 |
| 20260905113122 | 76 | 222 | 1.0 | 4.0 | 0.00 | 0.00 | 0.00 | 93 | 1013.1 |
| 20260905103121 | 76 | 302 | 1.0 | 3.0 | 0.00 | 0.00 | 0.00 | 92 | 1013.0 |
| 20260905100121 | 76 | 288 | 0.0 | 0.0 | 0.00 | 0.00 | 0.00 | 91 | 1013.0 |
| 20260905093121 | 77 | 288 | 1.0 | 3.0 | 0.00 | 0.00 | 0.00 | 91 | 1013.1 |
| 20260905083121 | 78 | 301 | 1.0 | 5.0 | 0.00 | 0.00 | 0.00 | 89 | 1013.3 |
| 20260905080121 | 78 | 246 | 5.0 | 7.0 | 0.00 | 0.00 | 0.00 | 89 | 1013.0 |
| 20260905073121 | 79 | 260 | 1.0 | 5.0 | 0.00 | 0.00 | 0.00 | 87 | 1012.9 |
| 20260905070121 | 80 | 265 | 2.0 | 8.0 | 0.00 | 0.00 | 0.00 | 87 | 1012.9 |
| 20260905063121 | 80 | 252 | 0.0 | 5.0 | 0.00 | 0.00 | 0.00 | 87 | 1013.2 |
| 20260905060121 | 80 | 243 | 1.0 | 8.0 | 0.00 | 0.00 | 0.00 | 86 | 1013.2 |
| 20260905053121 | 80 | 214 | 4.0 | 8.0 | 0.00 | 0.00 | 0.00 | 86 | 1013.5 |
| 20260905050121 | 80 | 227 | 7.0 | 8.0 | 0.00 | 0.00 | 0.00 | 86 | 1013.5 |
| 20260905043121 | 80 | 212 | 5.0 | 5.0 | 0.00 | 0.00 | 0.00 | 88 | 1013.6 |
| 20260905040121 | 80 | 227 | 2.0 | 4.0 | 0.00 | 0.00 | 0.00 | 88 | 1013.6 |
| 20260905023121 | 83 | 316 | 0.0 | 0.0 | 0.00 | 0.00 | 0.00 | 82 | 1013.7 |